Weather History for CXCK - December, 2013

Change the Weather History Date:

Monday, December 23, 2013

  Actual Average Record
Temperature  
Mean Temperature 0 °F -  
Max Temperature 5 °F - - ()
Min Temperature -4 °F - - ()
Degree Days  
Heating Degree Days 64    
Moisture  
Dew Point -3 °F    
Average Humidity 85    
Maximum Humidity 89    
Minimum Humidity 79    
Precipitation  
Precipitation 0.08 in - - ()
Sea Level Pressure  
Sea Level Pressure 29.88 in    
Wind  
Wind Speed 1 mph ()    
Max Wind Speed 4 mph    
Max Gust Speed -    
T = Trace of Precipitation, MM = Missing Value Source: Averaged Metar Reports

Daily Weather History Graph

Daily Weather History Graph

Search for Another Location

Airport or City:

Trip Planner

Search our weather history database for the weather conditions in past years. The results will help you decide how hot, cold, wet, or windy it might be!

Date:

Astronomy

Dec. 23, 2013 Rise Set
Actual Time 10:30 AM PST 3:37 PM PST
Civil Twilight 9:24 AM PST 4:43 PM PST
Nautical Twilight 8:22 AM PST 5:46 PM PST
Astronomical Twilight 7:26 AM PST 6:41 PM PST
Moon 11:56 PM PST (12/23) 12:06 PM PST (12/23)
Length of Visible Light 7h 19m
Length of Day
5h 06m
Waning Gibbous, 67% of the Moon is Illuminated
Dec 23
Waning Gibbous
Dec 25
Last Quarter
Jan 1
New
Jan 7
First Quarter
Jan 15
Full

Hourly Weather History & Observations

Time (PST) Temp. Windchill Dew Point Humidity Pressure Visibility Wind Dir Wind Speed Gust Speed Precip Events Conditions
12:00 AM -2.9 °F - -6.5 °F 85% 29.69 in - NE 1.2 mph - N/A   Unknown
1:00 AM -1.3 °F - -6.5 °F 79% 29.71 in - Calm Calm - N/A   Unknown
2:00 AM -2.0 °F - -5.3 °F 86% 29.73 in - SSE 1.2 mph - 0.01 in   Unknown
3:00 AM -3.8 °F - -7.6 °F 84% 29.74 in - NE 1.2 mph - N/A   Unknown
4:00 AM -3 °F - -6 °F 82% 29.75 in - NNE 1.2 mph - -  
4:00 AM -2.6 °F - -5.6 °F 87% 29.75 in - NNE 1.2 mph - N/A   Unknown
5:00 AM -0.8 °F - -4.2 °F 85% 29.76 in - ESE 1.2 mph - 0.01 in   Unknown
6:00 AM -1.1 °F - -4.5 °F 85% 29.77 in - North 1.2 mph - N/A   Unknown
7:00 AM -1.8 °F - -5.3 °F 85% 29.77 in - East 1.2 mph - N/A   Unknown
8:00 AM 0.5 °F - -4.5 °F 79% 29.78 in - Calm Calm - N/A   Unknown
9:00 AM -0.2 °F - -3.5 °F 86% 29.78 in - Calm Calm - 0.01 in   Unknown
10:00 AM 0 °F - -3 °F 81% 29.78 in - Calm Calm - -  
10:00 AM 0.3 °F - -2.9 °F 86% 29.78 in - Calm Calm - 0.01 in   Unknown
11:00 AM 1.0 °F - -2.2 °F 86% 29.79 in - Calm Calm - 0.01 in   Unknown
12:00 PM 1.8 °F - -1.5 °F 86% 29.80 in - Calm Calm - 0.01 in   Unknown
1:00 PM 2.7 °F - -0.4 °F 87% 29.82 in - NW 2.3 mph - 0.01 in   Unknown
2:00 PM 3.6 °F - 0.5 °F 87% 29.85 in - NNW 2.3 mph - 0.02 in   Unknown
3:00 PM 3.9 °F - 0.7 °F 86% 29.88 in - NNW 1.2 mph - 0.01 in   Unknown
4:00 PM 4 °F - 1 °F 82% 29.91 in - NW 1.2 mph - -  
4:00 PM 5.9 °F - 1.2 °F 81% 29.91 in - NW 1.2 mph - N/A   Unknown
5:00 PM 4.8 °F - 2.1 °F 89% 29.95 in - North 2.3 mph - N/A   Unknown
6:00 PM 4.5 °F -2.7 °F 1.4 °F 87% 30.00 in - ESE 3.5 mph - 0.01 in   Unknown
7:00 PM 3.4 °F - 0.3 °F 87% 30.04 in - North 1.2 mph - N/A   Unknown
8:00 PM 3.2 °F -4.2 °F 0.3 °F 88% 30.09 in - North 3.5 mph - N/A   Unknown
9:00 PM 1.2 °F - -2.0 °F 86% 30.13 in - NE 1.2 mph - N/A   Unknown
10:00 PM 0 °F - -3 °F 81% 30.17 in - East 1.2 mph - -  
10:00 PM 0.5 °F - -2.9 °F 85% 30.17 in - East 1.2 mph - N/A   Unknown
11:00 PM -1.7 °F - -5.3 °F 85% 30.21 in - NNE 1.2 mph - N/A   Unknown